Weather in Zeltweg

Austria     47°11′22″N   14°45′10″E
temp.,
°C
wind,
m/s
gust,
m/s
humid.,
%
clouds,
%
prec.,
mm/h
press.,
hPa
HPBL,
m
27 january, thu
thu2701:00−7wnw2192100 0.0 103121
04:00−7nw2292100 0.0 103027
07:00−8wnw2290100 0.0 103119
10:000w1280100 0.0 102683
13:00+3wsw2392100 0.0 102385
16:00+1wnw2292100 0.0 102234
19:00−5wnw2286100 0.0 102525
22:00−5wnw227847 0.0 102532
28 january, fri
fri2801:00−5nw32835 0.0 102540
04:00−3nw229163 0.1 102447
07:00−4wnw359080 0.8 1026204
10:00−1wnw4157339 0.3 10262036
13:00−1nw4157073 0.6 10271948
16:00−3nw397638 0.1 1029848
19:00−7wnw249049 0.3 1033155
22:00−7nw35875 0.1 1035132
29 january, sat
sat2901:00−8wnw23926 0.1 103565
04:00−10wnw239526 0.0 103643
07:00−10wnw229395 0.0 103634
10:00−3wnw127249 0.0 1032198
13:00+1sw247361 0.0 1028457
16:000wsw23856 0.0 102669
19:00−4w23916 0.0 102753
22:00−4w34889 0.0 102655
30 january, sun
sun3001:00−3w358641 0.0 102463
04:00−2w358795 0.0 102294
07:00−1w358749 0.0 102194
10:00+2wnw4108237 0.1 10201017
13:00+3wnw516710 0.1 10211581
16:00+1wnw37630 0.0 1022214
19:00−5w35865 0.0 102775
22:00−6wnw34895 0.0 102866
31 january, mon
mon3101:00−7wnw249110 0.0 102868
04:00−8nw229413 0.0 102834
07:00−9nw219537 0.0 102825
10:00−4sw0176100 0.0 1023138
13:00−2e1170100 0.0 1020373
16:00−3e1185100 0.0 101842
19:00−5n1193100 0.0 101942
22:00−5nnw2293100 0.0 102056